Weather History for West Palm Beach, FL

Change the Weather History Date:

Sunday, December 9, 2012

  Actual Average Record
Temperature  
Mean Temperature 76 °F 69 °F  
Max Temperature 83 °F 77 °F 90 °F (2009)
Min Temperature 68 °F 61 °F 41 °F (1934)
Degree Days  
Heating Degree Days 0 1  
Month to date heating degree days 0 9  
Since 1 July heating degree days 12 21  
Cooling Degree Days 11 6  
Month to date cooling degree days 93 54  
Year to date cooling degree days 4117 3920  
Growing Degree Days 25 (Base 50)    
Moisture  
Dew Point 71 °F    
Average Humidity 83    
Maximum Humidity 97    
Minimum Humidity 69    
Precipitation  
Precipitation T in 0.10 in 1.93 in (1977)
Month to date precipitation 0.10 0.97  
Year to date precipitation 77.70 59.92  
Snow  
Snow 0.00 in - - ()
Month to date snowfall 0.0  
Since 1 July snowfall 0.0  
Snow Depth 0.00 in    
Sea Level Pressure  
Sea Level Pressure 30.03 in    
Wind  
Wind Speed 4 mph (South)    
Max Wind Speed 13 mph    
Max Gust Speed 20 mph    
Visibility 10 miles    
Events Rain    
T = Trace of Precipitation, MM = Missing Value Source: NWS Daily Summary

Daily Weather History Graph

Daily Weather History Graph

Search for Another Location

Airport:

Trip Planner

Search our weather history database for the weather conditions in past years. The results will help you decide how hot, cold, wet, or windy it might be!

Date:

Astronomy

Dec. 09, 2012 Rise Set
Actual Time 6:57 AM EST 5:28 PM EST
Civil Twilight 6:32 AM EST 5:53 PM EST
Nautical Twilight 6:03 AM EST 6:22 PM EST
Astronomical Twilight 5:35 AM EST 6:50 PM EST
Moon 2:45 AM EST (12/9) 2:19 PM EST (12/9)
Length of Visible Light 11h 21m
Length of Day
10h 30m
Waning Crescent, 19% of the Moon is Illuminated
Dec 9
Waning Crescent
Dec 13
New
Dec 20
First Quarter
Dec 28
Full
Jan 4
Last Quarter

Hourly Weather History & Observations

Time (EST) Temp. Heat Index Dew Point Humidity Pressure Visibility Wind Dir Wind Speed Gust Speed Precip Events Conditions
12:53 AM 75.9 °F - 71.1 °F 85% 30.02 in 10.0 mi SSE 5.8 mph - N/A   Scattered Clouds
1:53 AM 75.9 °F - 72.0 °F 87% 30.01 in 10.0 mi SSW 5.8 mph - N/A   Mostly Cloudy
1:58 AM 75.2 °F - 71.6 °F 89% 30.01 in 10.0 mi SSW 6.9 mph - N/A   Mostly Cloudy
2:14 AM 75.2 °F - 71.6 °F 89% 30.01 in 10.0 mi South 3.5 mph - N/A   Mostly Cloudy
2:25 AM 75.2 °F - 71.6 °F 89% 30.01 in 10.0 mi SSW 3.5 mph - N/A   Scattered Clouds
2:48 AM 73.4 °F - 71.6 °F 94% 30.00 in 10.0 mi Calm Calm - 0.00 in Rain Light Rain
2:53 AM 73.9 °F - 71.1 °F 91% 30.00 in 10.0 mi Calm Calm - 0.00 in Rain Light Rain
3:53 AM 71.1 °F - 69.1 °F 93% 30.01 in 10.0 mi NW 5.8 mph - 0.00 in   Mostly Cloudy
4:53 AM 70.0 °F - 68.0 °F 93% 30.02 in 10.0 mi Calm Calm - N/A   Mostly Cloudy
5:46 AM 69.8 °F - 69.8 °F 100% 30.02 in 6.0 mi Calm Calm - N/A   Scattered Clouds
5:53 AM 69.1 °F - 68.0 °F 96% 30.03 in 4.0 mi Calm Calm - N/A   Scattered Clouds
6:53 AM 70.0 °F - 68.0 °F 93% 30.05 in 10.0 mi Calm Calm - N/A   Partly Cloudy
7:53 AM 70.0 °F - 68.0 °F 93% 30.06 in 10.0 mi Calm Calm - N/A   Mostly Cloudy
8:35 AM 71.6 °F - 69.8 °F 94% 30.08 in 10.0 mi North 3.5 mph - N/A   Mostly Cloudy
8:53 AM 73.0 °F - 70.0 °F 90% 30.08 in 10.0 mi Calm Calm - N/A   Mostly Cloudy
9:41 AM 78.8 °F - 71.6 °F 78% 30.09 in 10.0 mi Calm Calm - N/A   Mostly Cloudy
9:53 AM 78.1 °F - 72.0 °F 81% 30.09 in 10.0 mi Calm Calm - N/A   Mostly Cloudy
10:53 AM 79.0 °F - 72.0 °F 79% 30.08 in 10.0 mi Calm Calm - N/A   Mostly Cloudy
11:22 AM 80.6 °F 84.6 °F 71.6 °F 74% 30.07 in 10.0 mi Calm Calm - N/A   Mostly Cloudy
11:53 AM 80.1 °F 83.6 °F 71.1 °F 74% 30.06 in 10.0 mi Calm Calm - N/A   Mostly Cloudy
12:53 PM 81.0 °F 85.2 °F 72.0 °F 74% 30.02 in 10.0 mi ESE 6.9 mph - N/A   Mostly Cloudy
1:11 PM 82.4 °F 87.2 °F 71.6 °F 70% 30.02 in 10.0 mi ESE 9.2 mph - N/A   Mostly Cloudy
1:53 PM 81.0 °F 84.9 °F 71.1 °F 72% 30.00 in 10.0 mi ESE 8.1 mph - N/A   Mostly Cloudy
2:53 PM 81.0 °F 84.9 °F 71.1 °F 72% 30.00 in 10.0 mi SE 6.9 mph - N/A   Mostly Cloudy
3:53 PM 82.0 °F 86.7 °F 72.0 °F 71% 29.99 in 10.0 mi SE 10.4 mph - N/A   Mostly Cloudy
4:53 PM 80.1 °F 84.2 °F 73.0 °F 79% 30.00 in 10.0 mi SE 9.2 mph - N/A   Mostly Cloudy
5:53 PM 78.1 °F - 73.0 °F 84% 30.01 in 10.0 mi SE 8.1 mph - N/A   Mostly Cloudy
6:53 PM 78.1 °F - 73.0 °F 84% 30.02 in 10.0 mi SE 6.9 mph - N/A   Mostly Cloudy
7:53 PM 78.1 °F - 73.0 °F 84% 30.02 in 10.0 mi SSE 8.1 mph - N/A   Mostly Cloudy
8:53 PM 77.0 °F - 73.0 °F 88% 30.03 in 10.0 mi South 4.6 mph - N/A   Scattered Clouds
9:53 PM 75.9 °F - 73.0 °F 91% 30.03 in 10.0 mi Calm Calm - N/A   Scattered Clouds
10:32 PM 73.4 °F - 69.8 °F 88% 30.04 in 10.0 mi WNW 8.1 mph - N/A   Mostly Cloudy
10:53 PM 73.0 °F - 69.1 °F 87% 30.04 in 10.0 mi West 5.8 mph - N/A   Mostly Cloudy
11:18 PM 73.4 °F - 68.0 °F 83% 30.03 in 10.0 mi West 3.5 mph - N/A   Mostly Cloudy
11:37 PM 73.4 °F - 68.0 °F 83% 30.03 in 10.0 mi West 3.5 mph - N/A   Scattered Clouds
11:53 PM 72.0 °F - 68.0 °F 87% 30.03 in 10.0 mi Calm Calm - N/A   Scattered Clouds